Location: Henry Coe State Park
(37.1875°N, 121.5503°W)
Time: 10:48:26
(UTC-07:00)

Daily predictions for brighter satellites

Satellite Brightness Start Highest point End
(mag) Time Altitude Azimuth Time Altitude Azimuth Time Altitude Azimuth
H-2A R/B 4.2 19:36:24 10° WSW 19:41:32 50° S 20:18:36 10° ESE
H-2A R/B 4.2 19:36:25 10° WSW 19:41:32 50° S 20:18:36 10° ESE
H-2A R/B 4.2 19:36:24 10° WSW 19:41:32 50° S 20:18:37 10° ESE
H-2A R/B 4.2 19:36:25 10° WSW 19:41:33 50° S 20:18:36 10° ESE
USA 234 4.1 20:08:43 10° E 20:14:40 38° NNE 20:20:37 10° NNW
Cosmos 2360 4.4 20:11:25 10° S 20:16:56 53° ESE 20:22:30 10° NNE
BREEZE-M DEB (TANK) 4.1 20:15:37 10° W 20:18:10 35° N 20:23:01 10° ENE
ATLAS CENTAUR R/B 1.6 20:17:34 10° NW 20:20:02 89° ENE 20:25:57 10° SE
Molniya-1 3.1 20:24:03 10° S 20:25:29 28° ESE 20:27:09 10° NE
Cosmos 1455 2.3 20:22:12 10° S 20:25:55 53° E 20:29:37 10° NNE
Cosmos 1486 Rocket 4.5 20:24:09 10° N 20:29:06 42° ENE 20:34:04 10° SE
Cosmos 1869 4.1 20:27:04 10° SSE 20:30:33 31° E 20:34:02 10° NNE
OTV 4 1.3 20:29:15 10° W 20:31:57 37° SSW 20:34:14 13° SE
SJ-6B 4.4 20:30:31 10° SSW 20:34:08 37° W 20:37:51 10° NNW
Cosmos 1400 Rocket 2.9 20:35:41 10° NNW 20:39:35 78° W 20:43:30 10° S
Cosmos 1697 Rocket 4.2 20:39:11 10° SW 20:44:29 41° WNW 20:49:49 10° N
USA 186 1.2 20:42:33 11° SSE 20:44:58 66° ENE 20:47:45 10° N
Cosmos 1892 2.9 20:41:14 10° NNW 20:45:01 72° W 20:48:48 10° S
CENTAUR R/B 4.0 20:39:34 10° WSW 20:45:14 41° NW 20:51:38 10° NNE
Milstar 3 3.5 20:37:58 10° WSW 20:45:57 43° S 20:50:56 16° ESE
ALOS 4.0 20:43:52 10° SSW 20:48:06 34° W 20:52:20 10° NNW
Gblst 52 Del rocket 4.2 20:42:25 10° NW 20:48:18 83° SW 20:52:45 16° SE
Cosmos 2026 Rocket 4.4 20:43:27 10° N 20:49:21 42° ENE 20:54:29 13° SE
H-2A R/B 4.0 20:46:39 10° S 20:50:24 43° W 20:54:08 10° NNW
Cosmos 1315 Rocket 2.7 20:48:01 10° N 20:52:07 74° E 20:56:07 10° SSE
Abrixas rocket 3.8 20:50:03 10° W 20:53:06 35° NNW 20:56:09 10° NE
Cosmos 2297 Rocket 4.3 20:49:55 10° NW 20:54:28 25° WSW 20:59:01 10° SSW
YAOGAN 6 4.1 20:54:41 19° E 20:55:33 20° ENE 20:58:18 10° NNE
DELTA 2 R/B (1) 3.7 20:50:03 10° WNW 20:55:38 68° SSW 20:59:32 20° ESE
Cosmos 1707 Rocket 3.9 20:55:57 10° SSW 21:00:23 70° W 21:04:49 10° N
CZ-3B DEB 2.4 20:59:01 10° WNW 21:02:28 26° WSW 21:04:07 14° S
Cosmos 1354 Rocket 4.4 20:58:37 10° N 21:03:40 45° ENE 21:06:35 23° SE
Cosmos 2263 Rocket 3.4 20:59:05 10° N 21:03:42 26° ENE 21:06:05 19° E
Cosmos 1634 Rocket 4.0 20:58:41 10° S 21:04:58 87° E 21:11:19 10° N
Cosmos 2322 Rocket 2.2 20:59:38 10° S 21:05:06 59° ESE 21:10:38 10° NNE
Spot 2 Rocket 4.5 21:02:32 10° S 21:07:25 47° W 21:12:20 10° NNW
Cosmos 1092 Rocket 4.2 21:02:50 10° N 21:09:10 76° W 21:15:29 10° S
Meteor 1-29 2.8 21:05:45 10° NNE 21:09:15 83° ESE 21:12:42 10° S
Cosmos 1733 Rocket 3.7 21:05:54 10° N 21:10:03 37° ENE 21:11:35 29° ESE
Cosmos 1655 Rocket 4.2 21:05:21 10° N 21:11:36 53° E 21:15:50 21° SSE
Helios 1B rocket 2.6 21:08:17 10° N 21:12:23 74° WNW 21:16:28 10° SSW
Cosmos 1862 Rocket 3.9 21:11:07 24° SSE 21:13:21 43° E 21:17:36 10° NNE
Lacrosse 4 Rocket 2.2 21:10:35 10° N 21:14:38 38° ENE 21:16:01 30° E
Cosmos 2360 Rocket 3.1 21:15:51 26° ESE 21:16:18 26° ESE 21:20:56 10° NE
Cosmos 1825 2.1 21:13:08 10° N 21:16:55 61° E 21:18:16 36° SSE
Cosmos 1980 Rocket 3.8 21:11:50 10° SW 21:17:04 38° WNW 21:22:22 10° N
GENESIS II 4.4 21:13:35 10° SSW 21:17:29 49° ESE 21:21:26 10° NE
Cosmos 1862 3.7 21:15:12 10° N 21:19:03 43° E 21:19:53 37° ESE
CZ-4B DEB 2.7 21:20:45 37° S 21:21:47 71° WSW 21:24:50 10° NNW
Meteor 2-20 Rocket 4.4 21:17:24 10° N 21:23:33 86° E 21:28:33 16° S
Cosmos 1939 Rocket 2.8 21:21:31 27° SSE 21:23:39 88° ENE 21:27:42 10° NNW
Envisat 3.1 21:23:11 16° S 21:27:14 74° WSW 21:32:20 10° NNW
Cosmos 2242 Rocket 3.7 21:22:52 10° SSW 21:27:24 75° W 21:31:55 10° N
SJ-11-01 4.4 21:28:21 22° S 21:31:20 75° WSW 21:36:02 10° NNW
SL-16 R/B 2.2 21:26:27 10° SSW 21:32:07 83° WNW 21:37:50 10° NNE
SPOT 5 3.8 21:34:04 30° E 21:34:30 30° ENE 21:38:38 10° N
Intercosmos 25 Rocket 3.9 21:36:50 17° SSW 21:38:59 46° W 21:42:26 10° N
Resurs 01 Rocket 4.4 21:40:50 10° SW 21:43:25 15° W 21:46:01 10° WNW
OAO 3 Rocket 3.2 21:39:10 10° W 21:44:04 69° S 21:44:57 55° ESE
ATLAS 5 CENTAUR R/B 3.3 21:40:12 10° NNW 21:45:40 34° NE 21:47:28 29° E
MetOp-B 4.3 21:44:34 44° ESE 21:45:40 52° ENE 21:50:51 10° N
MINOTAUR IV R/B 4.5 21:41:16 10° NNW 21:45:52 85° ENE 21:46:42 60° SSE
Cosmos 2279 Rocket 4.1 21:41:05 10° SSW 21:47:18 74° W 21:53:33 10° N
SEDSat Delta rocket 4.0 21:42:53 10° WSW 21:48:11 44° S 21:48:41 43° SSE
Meteor 1-26 Rocket 4.3 21:48:41 47° SE 21:49:47 55° E 21:55:23 10° NNE
SPOT 1/Viking Rocket 4.4 21:52:06 33° ENE 21:52:10 33° ENE 21:56:48 10° N
ARGOS 3.4 21:53:21 45° E 21:53:53 47° ENE 21:59:01 10° N
USA 234 3.4 21:54:42 37° SSE 21:57:23 64° SW 22:03:55 10° NW
Cosmos 1408 4.2 21:54:39 10° NNW 21:57:59 32° W 21:59:06 26° SW
Atlas Centaur 2 3.3 21:51:29 10° SW 21:58:30 43° SSE 21:59:34 41° SE
ERBS 3.4 21:56:43 10° NW 21:59:23 43° W 21:59:23 43° W
ERS-1 Rocket 3.1 22:02:11 48° SSW 22:03:30 69° WSW 22:08:31 10° NNW
Cosmos 1844 Rocket 4.3 22:03:27 10° N 22:07:21 19° NE 22:07:24 19° NE
Sich 1 Rocket 3.7 22:05:02 10° N 22:08:57 65° NNE 22:08:57 65° NNE
MOS 1-B Rocket 3.8 22:16:44 65° ESE 22:17:25 72° ENE 22:23:06 10° N
SeaSat 1 2.4 22:19:46 76° NNE 22:19:46 76° NNE 22:24:30 10° NNW
H-2A R/B 4.0 22:21:27 20° NNE 22:21:27 20° NNE 22:23:16 10° NNE
USA 245 4.2 22:23:32 74° S 22:24:07 88° WSW 22:29:35 10° NNW
Meteor 1-14 Rocket 4.1 22:19:08 10° N 22:24:46 78° ENE 22:24:46 78° ENE
Cosmos 1908 Rocket 4.2 22:21:56 10° NNW 22:25:26 53° NW 22:25:26 53° NW
Okean 2 Rocket 4.5 22:36:22 10° N 22:38:59 34° N 22:38:59 34° N
USA 229 DEB 3.6 22:39:03 47° SW 22:41:17 87° WNW 22:48:15 10° NNE
USA 229 3.6 22:39:21 50° SW 22:41:22 88° WNW 22:48:21 10° NNE
Terra 3.3 22:44:38 30° NNE 22:44:38 30° NNE 22:47:17 10° N
Meteor 1-25 Rocket 4.4 22:38:15 10° N 22:43:01 65° N 22:43:01 65° N
H-2A R/B 2.5 22:45:19 53° N 22:45:19 53° N 22:49:06 10° NNW
COSMOS 2428 3.8 22:46:58 35° NE 22:46:58 35° NE 22:50:13 10° NNE
Cosmos 1867 3.9 22:39:28 10° NNW 22:44:01 61° N 22:44:01 61° N
Cosmos 2263 Rocket 3.0 22:42:32 10° NW 22:47:42 40° WSW 22:47:48 40° WSW
Lacrosse 4 Rocket 3.9 22:50:09 10° WNW 22:52:23 17° W 22:52:23 17° W
Cosmos 2360 Rocket 3.4 22:57:26 25° WSW 23:00:03 38° WNW 23:05:20 10° N
Cosmos 2333 Rocket 4.0 23:28:48 23° NNE 23:28:48 23° NNE 23:30:54 10° NNE
CZ-4C R/B 3.8 23:23:27 10° NNW 23:29:57 36° NE 23:30:05 36° NE
ATLAS 5 CENTAUR R/B 3.5 23:24:41 10° NW 23:29:01 38° W 23:29:01 38° W
Cosmos 2237 Rocket 4.3 23:38:24 19° NE 23:38:24 19° NE 23:39:55 10° NNE
Cosmos 2278 Rocket 3.7 23:34:50 10° N 23:37:59 30° NNE 23:37:59 30° NNE
Cosmos 1844 Rocket 4.2 23:46:10 10° NNW 23:49:04 31° NW 23:49:04 31° NW
